This is the latest recevied weather packets stored in our database for station/object JG6YPS-13. If no packets are shown the sender has not sent any weather packets the latest 10 day(s).
| Time | Temp. | Humidity | Pressure | Rain* | Wind** | Luminosity | Snow |
|---|---|---|---|---|---|---|---|
| 1777741216 | 14.44° C | 83% | 1012 hPa | 0 mm | - | - | - |
| 1777740616 | 14.44° C | 82% | 1011.7 hPa | 0 mm | - | - | - |
| 1777740017 | 14.44° C | 82% | 1011.8 hPa | 0 mm | - | - | - |
| 1777739418 | 14.44° C | 81% | 1012.1 hPa | 0 mm | - | - | - |
| 1777738818 | 13.89° C | 83% | 1012.5 hPa | 0 mm | - | - | - |
| 1777738219 | 13.89° C | 83% | 1012.7 hPa | 0 mm | - | - | - |
| 1777737620 | 13.89° C | 82% | 1012.7 hPa | 0 mm | - | - | - |
| 1777737020 | 13.89° C | 83% | 1012.6 hPa | 0 mm | - | - | - |
| 1777736421 | 14.44° C | 81% | 1012.5 hPa | 0 mm | - | - | - |
| 1777735821 | 13.89° C | 81% | 1012.3 hPa | 0 mm | - | - | - |
| 1777735222 | 13.89° C | 80% | 1012.5 hPa | 0 mm | - | - | - |
| 1777734623 | 13.89° C | 81% | 1012.8 hPa | 0 mm | - | - | - |
| 1777734023 | 13.89° C | 80% | 1013.1 hPa | 0 mm | - | - | - |
| 1777733424 | 13.89° C | 80% | 1013.2 hPa | 0 mm | - | - | - |
| 1777732824 | 14.44° C | 80% | 1013.2 hPa | 0 mm | - | - | - |
| 1777732225 | 14.44° C | 80% | 1013.3 hPa | 0 mm | - | - | - |
| 1777731626 | 14.44° C | 78% | 1013.1 hPa | 0 mm | - | - | - |
| 1777731027 | 13.89° C | 79% | 1013.1 hPa | 0 mm | - | - | - |
| 1777730427 | 14.44° C | 78% | 1013.1 hPa | 0 mm | - | - | - |
| 1777729828 | 15° C | 75% | 1013 hPa | 0 mm | - | - | - |
| 1777729229 | 15° C | 75% | 1012.9 hPa | 0 mm | - | - | - |
| 1777728629 | 14.44° C | 77% | 1013.1 hPa | 0 mm | - | - | - |
| 1777728030 | 15° C | 77% | 1013.2 hPa | 0 mm | - | - | - |
| 1777727430 | 15° C | 78% | 1013.4 hPa | 0 mm | - | - | - |
| 1777726831 | 15° C | 77% | 1013.4 hPa | 0 mm | - | - | - |
* Rain latest hour (hover to see other rain measurements)
** Current wind speed in m/s (hover to see current wind gust speed)